To NAV CANADA Home Page Login to a new session Search on AWWS site Feedback and Comments Disclaimer Vers la page française équivalente Tips FAQ What's new on the site To the Forecasts and Observations / NOTAM section To "File a Flight Plan" website Publications and other links Update of the User's profile FIC Telephone Numbers My Weather Data Folder Route Weather Data Regional Weather Data Local Weather Data To the Forecasts and Observations / NOTAM section
Request Generated 01/21/2017 at 02:06:13 UTC . Weather information available at that time is displayed.

METAR/TAF

FLIN FLON/MB    (show WxCam)

LWIS CYFO 210200Z AUTO 08006KT 040V110 M04/M05 A2944=
LWIS CYFO 210100Z AUTO 09007KT 050V110 M04/M05 A2943=
METAR CYFO 210000Z 08006KT 040V110 15SM SCT007 BKN140 M03/M05 A2942
RMK SF3AC2 LAST OBS/NEXT 211200UTC SNW CVR/MUCH LOOSE SLP982=

CYFO - No TAF is issued for this station

Your time UTC time
Weather data provided by Environment Canada and NAV CANADA